Location: Newark
(54.0500°N, 12.8333°E)
Time: 15:17:36
(UTC+00:00)

Transit 4A - Pass Details

Date: 02 February 2020
Orbit: 872 x 973 km, 66.8° (Epoch: 16 February)

Event Time Altitude Azimuth Distance (km) Brightness Sun altitude
Exits shadow 03:52:12 19° 183° (S) 1,980 9.5 -26.8°
Maximum altitude 03:56:06 46° 119° (ESE) 1,179 8.7 -26.3°
Drops below altitude 10° 04:01:41 10° 48° (NE) 2,543 10.9 -25.5°
Sets 04:04:14 0° 43° (NE) 3,479 11.6 -25.1°
